Temperature
15 15 15 15 13 11 12 13 15 17 18 20 22 22 21 21 22 22 22 22 21 20 18 16 16 16 16 16 16 16 16 16 16 16 15 15 15 15 15 15 14 14 14 14 14 14 14 13 13
14 14 14 14 11 12 12 13 15 17 19 21 22 22 21 21 22 22 22 21 20 19 17 16 16 16 16 16 16 16 16 16 15 15 15 15 15 14 14 14 14 14 14 14 14 14 13 13 13
14 14 14 11 11 12 13 14 16 18 20 20 21 22 21 21 22 22 23 21 19 18 17 16 16 16 16 16 16 16 16 15 15 15 15 14 14 14 14 14 14 13 13 13 13 14 13 13 12
13 13 13 11 12 13 14 16 17 18 19 21 21 20 21 22 22 23 22 21 19 18 17 16 16 16 16 16 16 15 15 15 15 15 14 14 14 14 13 13 13 13 13 13 13 13 13 12 12
12 13 11 11 12 13 14 16 17 17 18 20 21 19 20 21 21 22 22 20 19 18 16 16 15 15 15 15 15 15 15 15 14 14 14 14 13 13 13 13 13 13 13 13 13 13 13 12 12
12 11 11 12 13 14 14 17 17 16 17 19 20 18 19 21 21 21 21 20 19 18 16 15 15 15 15 15 15 15 15 14 14 14 14 13 13 13 13 13 13 13 13 12 12 13 12 12 12
11 11 11 12 13 14 15 17 16 16 16 19 20 18 18 19 20 20 20 19 18 17 16 15 15 15 15 15 15 15 14 14 14 13 13 13 13 13 13 13 13 13 12 12 12 12 12 12 12
11 11 11 12 13 14 16 17 18 18 18 20 20 18 17 19 19 18 18 17 17 16 15 15 15 15 15 15 14 14 14 14 13 13 13 13 13 13 13 12 12 12 12 12 12 12 12 11 11
11 11 11 12 13 14 16 17 18 19 19 20 20 21 22 19 18 17 16 15 15 15 15 15 15 14 14 14 14 14 14 13 13 13 13 13 13 13 12 12 12 12 12 12 12 12 11 11 11
10 10 12 14 14 14 16 16 17 18 18 18 19 20 21 18 17 17 16 15 15 15 15 14 14 14 14 14 14 13 13 13 13 13 13 12 13 13 12 12 12 12 12 12 12 11 11 11 11
10 10 12 13 15 15 15 16 17 17 16 17 19 20 19 18 17 17 17 17 16 15 15 14 14 14 14 14 13 13 13 13 13 13 13 13 13 13 12 12 12 12 12 12 12 11 11 11 11
10 10 12 13 14 14 15 15 16 16 17 18 19 20 19 17 17 17 17 16 15 15 15 14 14 14 14 14 13 13 13 13 13 12 12 13 13 13 12 12 12 12 12 12 12 11 11 11 10
9 10 11 12 13 14 14 14 15 16 17 18 18 18 18 18 18 18 18 17 16 15 15 14 14 14 14 13 13 13 13 13 13 13 13 13 13 13 12 12 12 12 12 12 11 11 11 11 10
9 10 11 11 12 13 13 14 14 15 16 17 17 17 18 18 18 17 16 15 16 15 15 15 14 14 14 13 13 13 13 13 13 13 13 13 13 13 12 12 12 12 12 11 11 11 10 10 10
8 8 9 10 11 12 12 12 13 15 16 16 16 17 17 17 17 17 17 17 17 16 15 15 14 14 14 14 13 13 13 13 13 13 13 12 12 12 12 12 12 12 11 11 11 10 10 10 10
7 7 8 10 11 12 11 11 13 15 15 15 16 16 17 17 17 17 18 17 17 16 15 15 14 14 14 14 13 13 13 13 13 13 12 12 12 12 12 12 12 12 11 11 11 10 10 10 10
6 6 7 9 11 11 11 11 13 15 15 15 15 16 16 16 16 17 17 17 17 16 16 15 14 14 14 14 13 13 13 13 13 12 12 12 12 12 12 12 12 11 11 11 10 10 10 10 10
6 6 7 8 10 11 10 10 12 14 14 15 15 16 16 16 17 17 17 17 17 16 16 15 15 14 14 14 13 13 13 13 12 12 12 12 12 12 12 12 12 11 11 11 10 10 10 10 9
6 6 7 8 10 10 10 10 11 12 13 13 14 15 16 16 17 17 17 17 16 16 15 15 14 14 14 13 13 13 13 13 12 12 12 12 12 12 12 12 11 11 11 11 11 10 10 9 9
5 5 6 7 9 9 9 10 11 12 12 13 14 15 15 16 17 17 17 17 16 16 16 15 15 15 14 14 14 14 14 13 12 12 12 12 12 12 12 12 12 11 11 11 10 10 10 9 9
5 5 6 6 8 9 8 9 10 11 12 13 14 15 15 16 16 17 17 17 17 16 16 16 16 15 15 15 14 13 12 12 12 12 12 12 12 12 12 12 12 12 11 11 11 10 10 10 9
5 6 6 6 6 7 8 8 9 10 11 12 13 14 15 16 16 17 17 17 17 17 17 16 16 16 15 15 14 13 13 13 14 13 13 13 12 12 12 12 12 12 12 11 11 11 10 10 10
5 6 6 6 6 6 7 7 8 10 11 12 12 13 14 15 16 17 17 17 17 17 17 17 16 16 16 15 14 14 14 14 14 13 13 13 12 12 12 12 12 12 12 11 11 11 10 10 10
6 6 6 6 5 5 6 7 7 9 10 11 12 13 14 15 16 16 17 17 17 17 17 17 16 16 16 15 15 15 15 14 14 13 13 13 12 12 12 12 12 12 12 12 11 11 10 10 10
5 4 4 4 5 5 7 7 7 9 10 11 12 13 14 15 15 16 16 17 17 17 17 16 16 16 15 15 15 15 15 15 15 15 14 14 13 13 14 13 13 12 12 12 11 11 10 10 10
4 4 4 4 5 6 7 7 8 9 10 11 12 13 14 15 15 16 16 16 17 17 16 16 16 16 15 15 15 15 15 15 15 15 14 14 15 15 15 14 13 13 12 12 11 11 10 10 10
4 4 4 4 5 5 6 7 8 9 9 10 11 12 13 14 15 15 16 16 16 16 16 16 16 16 15 15 16 15 15 15 15 15 15 15 15 15 14 14 13 13 12 12 11 11 10 10 10
4 4 4 4 4 5 6 6 7 8 8 9 10 10 12 13 14 15 15 16 16 16 16 16 16 16 16 16 15 15 15 15 15 15 14 14 15 14 14 13 13 13 12 12 11 11 10 10 10
3 3 3 4 4 4 5 6 7 7 8 8 8 9 11 12 13 14 15 15 16 16 16 16 16 16 16 16 15 15 15 15 15 14 14 14 14 14 13 13 13 12 12 11 11 11 10 10 10
2 2 2 3 3 4 5 6 7 7 7 7 7 8 9 11 12 12 13 14 15 15 15 15 15 15 16 16 15 15 15 15 14 14 14 14 14 13 13 13 12 12 12 11 11 11 10 10 10
Wind_Speed
6 1 4 3 3 1 7 8 6 6 6 7 7 6 7 8 6 5 4 14 16 21 24 29 29 29 28 28 27 26 25 24 23 23 22 21 21 20 20 19 19 20 20 20 20 19 19 18 18
1 3 3 3 5 7 8 8 12 16 10 3 4 4 4 5 2 7 9 13 20 22 23 26 29 29 29 28 28 27 25 24 23 23 22 21 21 20 20 20 19 19 19 20 19 19 18 17 17
2 3 4 4 7 11 9 8 16 17 13 8 5 3 5 7 6 9 10 19 21 20 22 26 30 29 29 29 28 27 26 25 24 23 22 22 21 20 20 20 20 20 19 19 19 18 17 17 16
2 2 2 6 16 14 10 8 6 7 7 7 7 3 3 3 8 9 17 21 22 19 20 26 30 29 29 29 28 27 26 25 24 23 22 22 21 20 20 20 20 20 19 19 18 17 17 16 15
2 3 7 12 19 10 10 13 9 8 6 6 3 5 3 3 6 16 22 22 22 19 18 26 29 29 29 29 28 27 26 25 24 24 23 22 21 21 21 20 20 19 19 18 17 17 16 15 15
3 4 10 19 19 12 12 12 9 11 10 9 4 5 3 1 13 19 21 21 20 20 18 23 28 29 29 29 28 27 26 25 25 24 23 23 22 22 21 20 19 19 18 18 17 16 15 14 14
6 7 14 15 15 15 15 11 11 12 13 12 6 5 2 4 10 16 17 18 17 17 16 16 22 26 28 28 27 26 26 25 25 24 24 23 22 22 21 20 19 19 18 17 16 16 15 14 13
5 6 12 14 17 16 9 10 11 14 14 9 7 9 8 9 11 14 15 16 16 16 15 14 16 20 22 24 27 26 25 25 25 24 23 23 22 21 21 20 19 18 17 17 16 15 14 13 12
4 11 20 20 15 9 7 9 10 8 9 8 5 8 9 16 17 18 17 15 17 17 14 13 14 15 18 21 24 25 25 25 24 23 24 22 19 19 18 19 19 18 17 16 15 14 13 11 10
9 19 28 14 8 7 8 11 9 5 7 6 2 0 9 19 22 23 23 23 22 21 18 15 15 15 16 17 19 19 20 21 20 20 20 18 17 17 17 19 19 18 17 16 15 13 11 9 8
9 18 17 13 11 8 9 10 8 7 10 8 7 8 15 19 22 23 24 24 24 23 20 18 16 16 14 12 14 13 15 17 18 19 19 18 17 16 15 14 15 15 15 13 12 10 8 6 6
13 17 14 12 11 12 13 10 11 12 13 8 8 14 19 21 22 23 23 22 20 22 21 19 17 16 14 12 11 11 11 12 13 17 20 17 11 10 11 10 11 12 11 10 9 7 6 6 6
18 19 18 14 14 16 16 16 15 16 13 7 6 11 19 21 20 20 19 20 20 22 21 20 19 18 15 13 11 11 11 12 15 17 18 18 11 8 9 9 11 11 11 10 8 6 6 5 6
12 14 17 16 16 15 18 18 14 17 10 7 9 13 16 19 19 14 15 18 21 22 22 21 20 19 16 14 12 11 12 14 16 16 18 19 16 12 10 8 9 10 12 11 9 7 6 5 6
10 13 16 17 17 12 11 19 23 20 10 10 11 13 15 15 15 17 21 21 23 23 21 21 21 20 19 16 14 12 13 14 13 15 19 20 18 16 12 8 7 10 13 12 9 7 6 4 4
7 10 14 13 15 13 13 22 19 13 13 14 12 12 13 14 15 17 19 19 20 21 22 22 20 20 20 17 15 12 13 13 13 16 18 20 20 20 14 9 8 12 12 9 5 4 4 4 4
8 12 16 13 13 12 15 16 11 10 13 16 13 12 13 14 14 15 17 18 20 21 22 23 21 22 21 18 14 12 12 12 13 15 16 18 20 21 15 10 10 13 9 6 6 4 4 4 4
9 10 12 13 8 13 18 19 12 10 13 15 14 12 13 15 17 16 17 18 19 20 22 22 21 21 19 16 12 11 11 11 12 13 15 19 19 20 17 11 11 12 7 6 5 5 4 4 5
12 13 15 14 8 11 18 20 17 14 13 14 14 14 14 16 16 16 18 19 19 20 21 23 22 21 19 16 16 15 15 13 12 11 15 19 19 20 16 10 10 10 9 8 8 5 5 4 4
15 16 16 13 11 11 14 20 16 15 16 14 14 15 15 14 13 15 17 19 21 23 24 24 24 23 23 18 16 13 11 9 10 9 12 18 18 19 16 12 11 10 8 9 9 6 5 4 4
16 15 14 12 10 10 10 14 16 14 16 16 15 14 14 17 17 16 17 19 20 23 25 24 26 24 24 19 13 10 8 6 8 11 13 13 18 18 16 14 12 11 10 10 10 9 8 6 4
14 10 12 13 9 7 8 8 10 12 15 17 18 16 15 16 16 16 17 18 21 23 23 25 26 25 24 21 19 20 16 14 14 13 12 12 15 16 17 16 14 12 10 10 11 9 7 8 6
9 8 10 11 9 8 7 7 8 8 15 18 18 18 16 14 15 16 16 18 19 21 22 23 24 25 24 23 23 22 17 14 9 9 12 13 12 14 16 16 14 13 11 12 12 10 9 7 7
8 6 8 7 6 10 12 10 7 8 15 15 16 17 15 14 13 14 14 15 17 19 20 21 24 25 24 25 24 24 21 16 14 13 15 14 11 12 15 15 14 13 12 12 11 12 11 10 8
6 3 3 4 6 8 9 9 9 10 10 13 14 15 14 13 12 11 12 14 16 18 20 21 23 24 24 25 25 25 23 21 20 18 17 15 12 13 17 16 15 13 12 12 11 12 11 11 10
6 7 6 4 5 3 7 10 7 9 8 8 9 9 10 12 12 12 12 14 16 19 20 21 23 23 24 25 24 23 22 18 17 17 15 17 15 15 14 15 14 13 12 12 12 11 11 11 11
4 6 6 3 3 3 5 5 5 4 4 6 7 6 8 10 12 12 11 12 14 17 20 21 23 22 23 24 23 22 22 20 18 17 15 14 12 11 12 14 14 13 13 13 13 11 12 11 12
4 3 3 5 4 4 5 4 2 3 5 5 6 7 7 7 7 9 9 10 12 14 16 18 21 23 21 24 22 19 21 21 18 16 18 17 15 12 13 14 15 14 13 13 13 10 10 12 11
2 2 3 4 3 3 3 3 1 2 2 4 6 6 6 5 6 6 6 7 9 10 14 15 17 19 20 22 21 20 20 20 18 17 18 17 15 15 15 16 15 15 15 14 14 13 13 14 12
2 2 2 2 4 4 3 3 3 3 5 6 7 8 6 4 3 3 2 2 4 7 10 13 14 16 18 20 20 20 18 18 18 18 18 17 16 16 16 15 15 16 15 15 16 15 14 14 14
Wind_Direction
249 131 92 76 83 193 231 231 228 241 232 220 217 199 194 195 184 195 134 143 143 157 164 161 159 156 153 150 146 142 140 138 135 133 132 130 128 127 126 124 121 118 115 112 110 108 107 107 106
173 134 92 95 165 216 239 223 226 236 231 271 263 214 184 211 208 133 137 153 150 158 162 161 159 156 153 150 147 144 143 140 138 137 135 134 132 130 128 126 122 119 115 113 111 111 111 110 109
175 168 148 160 200 213 225 217 224 241 250 252 256 239 185 186 170 165 161 152 151 159 162 161 159 157 153 151 149 147 146 144 142 141 140 138 136 134 131 127 123 121 119 116 115 115 115 113 109
147 149 179 209 227 220 214 220 217 264 274 240 213 211 201 197 177 169 146 149 151 158 160 162 160 158 155 153 151 149 148 147 145 144 143 140 138 136 133 130 126 124 123 121 119 119 117 114 108
122 163 212 231 236 232 228 242 258 273 271 266 212 188 195 313 149 141 146 151 154 157 159 162 161 159 157 154 153 152 151 150 148 147 145 142 140 137 134 132 130 128 127 127 124 123 120 116 112
196 189 214 230 235 235 237 240 254 258 263 269 233 183 206 129 138 147 150 153 154 156 158 162 162 160 158 156 155 154 153 152 150 149 146 143 141 139 137 136 135 133 132 131 128 126 124 119 114
200 209 226 232 239 237 234 232 237 247 254 249 202 170 195 166 155 147 147 147 151 155 158 160 162 160 158 157 156 155 155 154 153 151 148 145 144 143 142 141 140 138 137 135 133 130 128 123 115
199 219 235 231 233 238 226 228 231 234 247 245 180 172 194 191 153 138 139 144 150 156 159 160 159 159 158 157 156 155 155 154 153 151 148 147 147 147 145 144 143 142 140 138 136 135 131 125 116
199 228 232 226 225 232 214 235 246 237 235 248 212 194 194 151 142 138 142 149 157 162 164 161 159 157 155 156 157 155 154 153 151 149 148 146 145 144 144 145 146 146 144 143 140 138 134 125 117
209 229 233 230 222 222 228 240 255 270 254 248 265 275 138 146 151 154 160 164 168 170 170 166 162 158 156 158 156 156 154 153 150 150 147 144 141 141 145 149 150 150 148 147 146 143 137 123 111
222 235 243 243 243 248 251 254 257 252 255 234 212 178 156 159 162 166 170 172 174 172 171 170 165 161 160 157 156 156 154 152 150 151 148 145 141 143 146 148 151 149 147 145 145 139 137 131 124
245 249 247 250 251 251 253 257 259 245 246 247 214 177 166 170 172 174 174 174 172 172 174 171 167 165 163 158 159 157 156 156 157 157 153 150 146 145 148 147 149 148 148 145 145 147 153 148 141
245 252 254 255 253 255 259 254 253 257 257 257 211 182 177 180 181 182 177 172 171 175 175 174 170 168 165 161 163 164 163 162 162 162 161 158 155 155 153 155 156 156 158 159 158 161 162 157 152
253 258 259 257 255 253 252 258 252 253 247 231 202 198 193 188 184 176 172 173 176 178 177 175 174 172 168 168 169 168 167 166 167 168 168 165 163 162 160 161 164 167 171 172 170 170 167 161 151
268 267 264 252 250 246 252 255 245 245 238 230 213 205 204 202 189 184 182 180 180 179 178 177 177 174 172 171 171 171 172 170 172 173 172 170 168 167 166 166 171 177 179 174 168 164 159 146 142
256 254 251 242 234 235 229 246 243 235 228 233 223 212 211 209 201 196 189 184 182 179 178 179 179 177 176 175 174 173 175 174 175 176 176 174 172 172 169 171 178 181 178 170 159 155 149 148 144
232 237 243 250 227 224 225 249 248 227 225 232 228 214 213 213 210 204 196 189 184 182 180 180 180 179 178 176 174 173 175 177 178 178 179 179 176 175 173 175 178 177 173 169 168 157 151 151 151
229 236 243 242 233 228 236 247 254 242 228 231 230 220 215 214 213 205 199 193 188 185 182 182 180 179 177 174 172 172 176 179 180 181 181 180 180 178 175 176 176 174 169 171 166 156 152 152 152
255 263 262 259 259 245 245 250 249 248 247 237 231 226 221 221 216 206 200 194 188 186 184 184 181 179 177 179 180 182 186 183 182 183 181 182 181 179 177 177 176 176 178 176 165 152 155 151 137
253 257 264 271 258 250 254 256 252 240 239 238 234 229 225 226 222 209 203 196 191 188 187 186 185 181 182 185 185 185 179 178 179 179 182 184 183 182 182 177 180 179 176 174 172 157 155 161 158
252 249 249 258 275 264 261 259 248 240 235 236 236 233 225 223 221 214 204 198 193 192 190 189 188 185 186 181 174 163 154 154 175 188 190 188 186 185 184 182 180 182 182 185 183 174 166 172 187
256 246 255 255 259 250 221 257 247 231 234 232 232 232 229 225 220 215 206 200 197 195 192 191 189 188 186 180 179 178 182 189 194 191 189 185 186 186 186 184 184 185 187 187 188 184 175 165 180
253 260 256 252 250 264 234 246 262 226 229 228 228 229 229 228 221 215 208 201 199 195 191 191 190 189 186 184 184 184 190 194 179 175 180 186 189 190 189 188 188 190 192 191 189 186 185 181 178
253 262 263 251 237 248 227 225 257 219 220 222 224 225 225 224 222 218 211 203 199 195 192 190 189 190 187 187 187 190 191 184 176 182 188 191 192 194 195 193 193 194 194 194 194 192 191 193 186
225 201 230 215 212 235 202 211 243 238 231 225 225 225 222 221 219 215 209 201 197 193 192 190 189 190 188 189 192 194 194 189 189 190 192 192 194 200 201 197 197 197 195 193 190 194 197 195 195
230 200 208 215 212 240 194 214 240 242 246 245 237 231 225 223 221 216 209 203 198 193 192 191 190 191 190 191 196 197 195 194 195 193 194 197 202 204 196 197 199 197 193 193 194 199 200 200 203
228 221 224 261 284 250 227 241 285 293 286 267 254 243 237 228 224 221 212 205 198 194 192 192 191 191 191 193 196 197 197 196 197 194 195 199 201 195 190 196 198 196 194 195 194 203 204 203 207
234 224 196 206 218 237 242 231 253 286 278 287 280 259 251 249 237 228 215 207 201 195 193 192 192 193 192 194 196 198 198 200 198 193 197 200 198 191 190 195 199 198 197 196 196 201 201 204 208
281 234 233 215 224 213 235 249 260 260 317 322 309 299 275 261 248 239 224 208 201 193 191 191 193 193 193 194 196 197 198 199 196 196 199 200 196 193 195 197 198 200 200 199 202 206 201 206 208
237 237 224 227 250 237 240 260 349 4 12 6 353 346 332 316 292 272 246 195 191 192 190 191 192 192 194 194 195 198 197 195 196 199 199 197 196 196 197 196 198 201 202 202 205 207 204 206 209
Height
1501 1502 1503 1505 1508 1513 1509 1497 1488 1482 1479 1474 1473 1473 1471 1473 1475 1478 1472 1471 1475 1478 1484 1490 1495 1499 1503 1506 1510 1513 1515 1517 1520 1522 1523 1525 1527 1528 1530 1531 1532 1533 1534 1535 1536 1536 1537 1538 1538
1498 1500 1503 1503 1508 1511 1501 1488 1482 1474 1471 1470 1471 1470 1468 1467 1467 1467 1468 1471 1475 1478 1483 1488 1493 1498 1502 1505 1509 1512 1514 1517 1519 1521 1523 1525 1527 1528 1530 1531 1532 1533 1534 1535 1536 1536 1537 1538 1539
1495 1497 1499 1499 1501 1495 1488 1478 1473 1468 1469 1470 1469 1467 1466 1464 1464 1465 1467 1470 1475 1479 1483 1487 1492 1497 1501 1504 1508 1511 1514 1516 1519 1521 1523 1524 1526 1528 1529 1531 1532 1533 1534 1535 1536 1537 1538 1539 1539
1493 1495 1495 1495 1487 1477 1473 1468 1467 1468 1466 1466 1466 1465 1463 1463 1463 1464 1466 1470 1473 1478 1482 1487 1492 1496 1500 1503 1507 1510 1513 1515 1518 1520 1522 1524 1526 1528 1529 1530 1531 1532 1534 1535 1536 1537 1538 1539 1540
1489 1490 1491 1486 1476 1470 1467 1465 1465 1465 1465 1462 1463 1462 1460 1461 1462 1464 1465 1469 1472 1476 1482 1486 1491 1495 1499 1502 1506 1509 1512 1515 1517 1520 1522 1524 1526 1527 1529 1530 1531 1532 1534 1535 1536 1537 1538 1539 1541
1486 1483 1484 1475 1467 1465 1463 1463 1464 1463 1462 1460 1461 1459 1458 1459 1460 1462 1465 1468 1472 1475 1480 1486 1491 1494 1498 1501 1505 1508 1511 1514 1516 1519 1521 1523 1525 1527 1528 1530 1531 1532 1534 1535 1536 1538 1539 1540 1541
1479 1478 1471 1466 1463 1460 1458 1459 1461 1460 1459 1457 1457 1457 1457 1458 1459 1461 1464 1468 1472 1476 1480 1485 1490 1494 1497 1501 1504 1507 1510 1513 1516 1518 1521 1522 1524 1526 1528 1529 1531 1532 1534 1535 1537 1538 1539 1541 1541
1472 1472 1465 1461 1458 1453 1453 1455 1455 1456 1454 1452 1454 1453 1453 1455 1458 1461 1464 1468 1471 1475 1479 1484 1488 1492 1496 1500 1503 1506 1510 1512 1515 1518 1520 1522 1524 1526 1528 1529 1531 1532 1534 1536 1537 1538 1540 1541 1542
1467 1467 1454 1449 1450 1450 1450 1451 1450 1451 1450 1448 1447 1447 1448 1451 1455 1459 1463 1467 1471 1475 1479 1482 1486 1490 1494 1498 1502 1505 1509 1512 1514 1517 1519 1521 1523 1525 1527 1529 1531 1532 1534 1536 1537 1539 1540 1541 1542
1460 1453 1440 1441 1445 1446 1446 1447 1447 1448 1446 1444 1443 1443 1445 1447 1450 1454 1458 1462 1467 1471 1476 1480 1484 1488 1492 1496 1500 1504 1507 1510 1513 1515 1518 1520 1522 1524 1526 1528 1530 1532 1534 1536 1537 1539 1540 1542 1543
1450 1443 1439 1441 1443 1443 1443 1443 1444 1444 1443 1440 1440 1440 1441 1444 1447 1450 1453 1456 1461 1466 1472 1477 1481 1486 1490 1494 1498 1501 1505 1508 1511 1514 1516 1519 1521 1523 1526 1528 1530 1532 1534 1535 1537 1539 1540 1542 1543
1446 1439 1439 1439 1441 1441 1440 1440 1440 1438 1437 1438 1438 1437 1438 1440 1443 1446 1450 1454 1460 1464 1469 1474 1478 1483 1488 1491 1495 1499 1502 1505 1509 1512 1515 1517 1520 1522 1524 1527 1529 1531 1533 1535 1537 1539 1540 1542 1543
1442 1437 1437 1437 1438 1438 1437 1436 1435 1432 1433 1435 1435 1435 1435 1436 1439 1443 1446 1451 1456 1461 1466 1470 1475 1480 1484 1489 1493 1496 1500 1503 1507 1510 1513 1516 1518 1521 1523 1526 1528 1530 1532 1535 1537 1538 1540 1542 1543
1437 1435 1434 1434 1434 1434 1434 1431 1431 1425 1429 1431 1432 1432 1433 1434 1436 1441 1445 1449 1453 1457 1462 1467 1472 1477 1481 1485 1490 1494 1498 1502 1505 1508 1511 1514 1517 1519 1522 1525 1527 1529 1532 1534 1536 1538 1540 1541 1543
1436 1434 1430 1428 1429 1429 1432 1427 1422 1420 1425 1427 1428 1429 1430 1431 1434 1436 1439 1443 1448 1453 1458 1463 1468 1473 1478 1482 1487 1492 1496 1499 1503 1506 1509 1512 1515 1518 1521 1523 1526 1528 1531 1533 1536 1537 1539 1541 1542
1434 1433 1428 1421 1423 1424 1431 1419 1412 1416 1420 1421 1423 1424 1426 1428 1430 1433 1436 1440 1444 1449 1454 1460 1465 1470 1474 1479 1484 1489 1493 1497 1500 1504 1507 1510 1513 1516 1519 1522 1524 1527 1530 1532 1534 1536 1538 1540 1541
1432 1429 1424 1419 1416 1418 1420 1413 1409 1412 1413 1414 1416 1419 1421 1423 1426 1430 1433 1437 1441 1445 1450 1455 1460 1465 1470 1476 1481 1486 1490 1494 1497 1501 1504 1507 1511 1514 1517 1520 1523 1526 1528 1530 1533 1535 1537 1539 1540
1427 1424 1420 1417 1412 1413 1413 1409 1408 1407 1408 1408 1409 1412 1415 1417 1420 1424 1429 1433 1437 1441 1446 1451 1456 1461 1467 1473 1478 1483 1487 1490 1494 1497 1501 1504 1508 1511 1514 1518 1521 1523 1526 1528 1531 1533 1536 1538 1540
1424 1422 1419 1413 1411 1411 1407 1405 1405 1404 1404 1403 1403 1405 1408 1410 1414 1419 1423 1428 1432 1437 1441 1446 1451 1456 1462 1467 1472 1476 1480 1485 1489 1493 1498 1501 1505 1508 1511 1514 1518 1520 1523 1526 1529 1531 1533 1536 1538
1422 1421 1418 1413 1409 1408 1406 1402 1399 1398 1398 1398 1398 1399 1401 1405 1408 1412 1416 1421 1425 1429 1434 1440 1445 1450 1455 1460 1465 1471 1476 1481 1486 1490 1494 1498 1501 1505 1508 1511 1514 1517 1520 1523 1526 1528 1530 1533 1535
1419 1418 1415 1413 1408 1405 1405 1400 1395 1391 1391 1392 1392 1393 1395 1398 1401 1404 1409 1413 1418 1422 1427 1432 1438 1443 1449 1455 1462 1468 1474 1479 1483 1486 1489 1492 1496 1500 1504 1507 1511 1514 1517 1519 1522 1525 1527 1529 1532
1413 1410 1411 1410 1411 1407 1404 1400 1389 1385 1385 1384 1384 1386 1387 1390 1393 1397 1401 1405 1410 1415 1420 1426 1431 1437 1443 1449 1455 1459 1463 1467 1471 1476 1482 1487 1492 1496 1500 1503 1507 1510 1513 1515 1518 1521 1524 1526 1528
1408 1406 1407 1406 1408 1408 1402 1401 1389 1381 1379 1376 1376 1377 1379 1382 1386 1389 1393 1397 1402 1408 1413 1419 1425 1430 1436 1442 1447 1452 1457 1462 1468 1473 1478 1483 1487 1491 1495 1499 1502 1505 1508 1511 1514 1517 1520 1522 1524
1405 1406 1405 1404 1406 1406 1396 1398 1387 1377 1370 1368 1368 1370 1372 1375 1378 1382 1386 1391 1396 1401 1406 1412 1418 1423 1429 1435 1440 1445 1450 1456 1462 1467 1472 1477 1481 1485 1489 1493 1496 1500 1503 1506 1509 1513 1515 1518 1520
1404 1409 1411 1407 1404 1397 1386 1389 1381 1368 1363 1361 1362 1363 1365 1369 1372 1375 1379 1383 1388 1393 1398 1404 1410 1416 1422 1428 1434 1439 1444 1450 1454 1460 1465 1470 1474 1478 1481 1486 1490 1493 1497 1501 1505 1508 1510 1513 1515
1402 1405 1408 1403 1396 1390 1381 1379 1371 1362 1359 1357 1357 1358 1360 1363 1366 1368 1372 1376 1381 1385 1391 1396 1402 1408 1414 1421 1427 1433 1439 1444 1449 1454 1459 1464 1467 1471 1476 1480 1484 1488 1492 1496 1500 1503 1505 1508 1511
1400 1400 1398 1400 1393 1391 1380 1371 1365 1359 1357 1356 1355 1355 1355 1357 1360 1362 1366 1370 1374 1379 1384 1389 1395 1401 1407 1413 1420 1426 1432 1437 1442 1447 1453 1458 1462 1467 1471 1476 1480 1483 1487 1491 1494 1497 1500 1503 1505
1399 1396 1397 1399 1396 1388 1379 1373 1370 1362 1358 1356 1355 1353 1352 1353 1355 1357 1360 1364 1368 1373 1378 1383 1389 1394 1400 1406 1413 1419 1425 1430 1436 1441 1446 1451 1456 1461 1466 1470 1474 1478 1482 1485 1488 1491 1494 1497 1499
1401 1399 1396 1394 1393 1389 1380 1374 1365 1361 1359 1358 1355 1352 1351 1351 1351 1353 1355 1358 1363 1368 1372 1377 1383 1389 1394 1400 1406 1412 1418 1424 1430 1435 1439 1445 1450 1455 1459 1464 1468 1472 1476 1479 1482 1485 1488 1491 1494
1401 1401 1400 1399 1396 1389 1382 1376 1363 1362 1361 1359 1357 1353 1351 1350 1349 1350 1351 1354 1358 1362 1366 1371 1376 1382 1388 1394 1400 1405 1411 1417 1422 1428 1433 1438 1443 1448 1453 1458 1462 1466 1470 1473 1476 1479 1482 1485 1487